Weather History for Lowell, ID

Change the Weather History Date:

Saturday, September 7, 2013

  Actual Average Record
Temperature  
Mean Temperature 68 °F -  
Max Temperature 82 °F 77 °F 86 °F (2006)
Min Temperature 54 °F 49 °F 45 °F (1999)
Cooling Degree Days 3    
Growing Degree Days 18 (Base 50)    
Moisture  
Dew Point 54 °F    
Average Humidity 72    
Maximum Humidity 93    
Minimum Humidity 32    
Precipitation  
Precipitation 0.00 in - - ()
Sea Level Pressure  
Sea Level Pressure 30.03 in    
Wind  
Wind Speed 1 mph (West)    
Max Wind Speed 7 mph    
Max Gust Speed -    
Averages and records for this station are not official NWS values.
T = Trace of Precipitation, MM = Missing Value Source: NWS Daily Summary

Daily Weather History Graph

Daily Weather History Graph

Search for Another Location

Airport:

Trip Planner

Search our weather history database for the weather conditions in past years. The results will help you decide how hot, cold, wet, or windy it might be!

Date:

Astronomy

Sep. 07, 2013 Rise Set
Actual Time 7:10 AM MDT 8:08 PM MDT
Civil Twilight 6:40 AM MDT 8:39 PM MDT
Nautical Twilight 6:03 AM MDT 9:15 PM MDT
Astronomical Twilight 5:25 AM MDT 9:53 PM MDT
Moon 9:40 AM MDT (9/7) 8:57 PM MDT (9/7)
Length of Visible Light 13h 58m
Length of Day
12h 57m
Waxing Crescent, 5% of the Moon is Illuminated
Sep 7
Waxing Crescent
Sep 12
First Quarter
Sep 19
Full
Sep 26
Last Quarter
Oct 4
New

Hourly Weather History & Observations

Time (MDT) Temp. Dew Point Humidity Pressure Visibility Wind Dir Wind Speed Gust Speed Precip Events Conditions
12:52 AM 59.0 °F 55.0 °F 87% 30.10 in - Calm Calm - N/A   Unknown
1:52 AM 57.0 °F 54.0 °F 89% 30.11 in - Calm Calm - N/A   Unknown
2:52 AM 55.9 °F 54.0 °F 93% 30.11 in - Calm Calm - N/A   Unknown
3:52 AM 55.0 °F 53.1 °F 93% 30.10 in - Calm Calm - N/A   Unknown
4:52 AM 55.0 °F 53.1 °F 93% 30.10 in - Calm Calm - N/A   Unknown
5:52 AM 54.0 °F 52.0 °F 93% 30.11 in - Calm Calm - N/A   Unknown
6:52 AM 54.0 °F 52.0 °F 93% 30.12 in - Calm Calm - N/A   Unknown
7:52 AM 55.0 °F 52.0 °F 89% 30.12 in - Calm Calm - N/A   Unknown
8:52 AM 55.9 °F 52.0 °F 87% 30.12 in - Calm Calm - N/A   Unknown
9:52 AM 57.9 °F 52.0 °F 81% 30.11 in - Calm Calm - N/A   Unknown
10:52 AM 63.0 °F 53.1 °F 70% 30.08 in - Calm Calm - N/A   Unknown
11:52 AM 70.0 °F 53.1 °F 55% 30.04 in - Calm Calm - N/A   Unknown
12:52 PM 75.0 °F 52.0 °F 44% 30.00 in - Calm Calm - N/A   Unknown
1:52 PM 79.0 °F 54.0 °F 42% 29.97 in - South 6.9 mph - N/A   Unknown
2:52 PM 82.9 °F 50.0 °F 32% 29.93 in - Variable 5.8 mph - N/A   Unknown
3:52 PM 82.0 °F 50.0 °F 33% 29.92 in - Variable 4.6 mph - N/A   Unknown
4:52 PM 82.9 °F 50.0 °F 32% 29.90 in - Variable 4.6 mph - N/A   Unknown
5:52 PM 73.0 °F 55.9 °F 55% 29.91 in - Calm Calm - N/A   Unknown
6:52 PM 69.1 °F 57.0 °F 65% 29.91 in - Calm Calm - N/A   Unknown
7:52 PM 66.0 °F 57.0 °F 73% 29.92 in - Calm Calm - N/A   Unknown
8:52 PM 63.0 °F 57.0 °F 81% 29.96 in - Calm Calm - N/A   Unknown
9:52 PM 62.1 °F 55.9 °F 80% 29.99 in - NNW 3.5 mph - N/A   Unknown
10:52 PM 60.1 °F 55.9 °F 86% 30.00 in - Calm Calm - N/A   Unknown
11:52 PM 59.0 °F 55.0 °F 87% 30.00 in - Calm Calm - N/A   Unknown